Weather History for Willimantic, CT

Change the Weather History Date:

Monday, April 21, 2014

  Actual Average Record
Temperature  
Mean Temperature 49 °F -  
Max Temperature 68 °F 60 °F 86 °F (1957)
Min Temperature 30 °F 37 °F 23 °F (1961)
Degree Days  
Heating Degree Days 16    
Moisture  
Dew Point 27 °F    
Average Humidity 52    
Maximum Humidity 88    
Minimum Humidity 12    
Precipitation  
Precipitation 0.00 in - - ()
Sea Level Pressure  
Sea Level Pressure 30.10 in    
Wind  
Wind Speed 3 mph (SSW)    
Max Wind Speed 12 mph    
Max Gust Speed -    
Visibility 10 miles    
Events      
Averages and records for this station are not official NWS values.
T = Trace of Precipitation, MM = Missing Value Source: NWS Daily Summary

Daily Weather History Graph

Daily Weather History Graph

Search for Another Location

Airport:

Trip Planner

Search our weather history database for the weather conditions in past years. The results will help you decide how hot, cold, wet, or windy it might be!

Date:

Astronomy

Apr. 21, 2014 Rise Set
Actual Time 5:59 AM EDT 7:36 PM EDT
Civil Twilight 5:30 AM EDT 8:05 PM EDT
Nautical Twilight 4:54 AM EDT 8:41 PM EDT
Astronomical Twilight 4:16 AM EDT 9:19 PM EDT
Moon 1:05 AM EDT (4/21) 11:21 AM EDT (4/21)
Length of Visible Light 14h 35m
Length of Day
13h 36m
Waning Gibbous, 58% of the Moon is Illuminated
Apr 21
Waning Gibbous
Apr 22
Last Quarter
Apr 29
New
May 6
First Quarter
May 14
Full

Hourly Weather History & Observations

Time (EDT) Temp. Windchill Dew Point Humidity Pressure Visibility Wind Dir Wind Speed Gust Speed Precip Events Conditions
12:52 AM 35.1 °F - 28.0 °F 76% 30.33 in 10.0 mi Calm Calm - N/A   Clear
1:52 AM 34.0 °F - 28.0 °F 79% 30.31 in 10.0 mi Calm Calm - N/A   Clear
2:52 AM 33.1 °F - 28.0 °F 82% 30.29 in 10.0 mi Calm Calm - N/A   Clear
3:52 AM 30.9 °F - 27.0 °F 85% 30.27 in 10.0 mi Calm Calm - N/A   Clear
4:52 AM 30.0 °F - 27.0 °F 88% 30.25 in 10.0 mi Calm Calm - N/A   Clear
5:52 AM 30.0 °F 26.5 °F 26.1 °F 85% 30.26 in 10.0 mi North 3.5 mph - N/A   Clear
6:52 AM 32.0 °F - 28.0 °F 85% 30.25 in 10.0 mi Calm Calm - N/A   Clear
7:52 AM 35.1 °F - 28.9 °F 78% 30.24 in 10.0 mi Calm Calm - N/A   Clear
8:52 AM 42.1 °F - 30.9 °F 65% 30.22 in 10.0 mi Calm Calm - N/A   Clear
9:52 AM 48.9 °F - 27.0 °F 43% 30.20 in 10.0 mi Calm Calm - N/A   Clear
10:52 AM 54.0 °F - 24.1 °F 31% 30.17 in 10.0 mi South 4.6 mph - N/A   Clear
11:52 AM 59.0 °F - 17.1 °F 20% 30.12 in 10.0 mi Variable 5.8 mph - N/A   Clear
12:52 PM 63.0 °F - 17.1 °F 17% 30.08 in 10.0 mi West 9.2 mph - N/A   Clear
1:52 PM 66.0 °F - 14.0 °F 13% 30.04 in 10.0 mi WSW 9.2 mph - N/A   Clear
2:52 PM 66.0 °F - 16.0 °F 15% 30.00 in 10.0 mi South 8.1 mph - N/A   Clear
3:52 PM 68.0 °F - 25.0 °F 20% 29.97 in 10.0 mi South 10.4 mph - N/A   Clear
4:52 PM 66.9 °F - 12.0 °F 12% 29.95 in 10.0 mi SW 9.2 mph - N/A   Clear
5:52 PM 66.0 °F - 18.0 °F 16% 29.94 in 10.0 mi SSW 11.5 mph - N/A   Clear
6:52 PM 62.1 °F - 28.0 °F 28% 29.93 in 10.0 mi South 11.5 mph - N/A   Clear
7:52 PM 57.0 °F - 37.0 °F 47% 29.93 in 10.0 mi South 8.1 mph - N/A   Clear
8:52 PM 54.0 °F - 37.9 °F 55% 29.92 in 10.0 mi SSW 6.9 mph - N/A   Clear
9:52 PM 52.0 °F - 39.0 °F 61% 29.91 in 10.0 mi South 3.5 mph - N/A   Clear
10:52 PM 50.0 °F - 39.0 °F 66% 29.91 in 10.0 mi South 4.6 mph - N/A   Scattered Clouds
11:52 PM 46.9 °F - 39.0 °F 74% 29.89 in 10.0 mi South 3.5 mph - N/A   Clear